Regional Weather Roundup
Issued by NWS

Home | Current Version | Previous Version | Graphics & Text | Print | Product List | Glossary On
Versions: 1 2 3 4 5 6 7 8 9 10 11 12 13 14 15 16 17 18 19 20 21 22 23 24 25 26 27 28 29 30 31 32 33 34 35 36 37 38 39 40 41 42 43 44 45 46 47 48 49 50
000
ASUS43 KTOP 312059
RWRKS

WEATHER ROUNDUP FOR KANSAS
NATIONAL WEATHER SERVICE GOODLAND KS
400 PM CDT MON AUG 31 2015

NOTE:  "FAIR" INDICATES FEW OR NO CLOUDS BELOW 12,000 FEET WITH NO
SIGNIFICANT WEATHER AND/OR OBSTRUCTIONS TO VISIBILITY.

KSZ001>006-013>018-027>032-041>047-312200-
NORTHWEST KANSAS

CITY           SKY/WX    TMP DP  RH WIND       PRES   REMARKS
GOODLAND       FAIR      94  49  21 VRB7      29.94F
HAYS           FAIR     100  50  18 S21G28    29.86F HX  97
HILL CITY      FAIR     100  51  19 VRB7      29.86F HX  97
RUSSELL        FAIR      99  49  18 S17G39    29.86F HX  96
$$

KSZ061>065-074>080-084>089-312200-
SOUTHWEST KANSAS

CITY           SKY/WX    TMP DP  RH WIND       PRES   REMARKS
DODGE CITY     FAIR      95  46  18 S18G25    29.92F
ELKHART          N/A     92  57  30 S21         N/A
GARDEN CITY    FAIR      96  48  19 S21G31    29.90F
GREAT BEND     FAIR      97  54  23 S17G23    29.88F
LIBERAL        FAIR      95  52  23 S20G30    29.93F
$$

KSZ066>073-081>083-090>101-312200-
SOUTHEAST KANSAS

CITY           SKY/WX    TMP DP  RH WIND       PRES   REMARKS
CHANUTE        FAIR      89  71  55 S15       29.96F HX  95
COFFEYVILLE    FAIR      89  72  56 S13       29.96F HX  96
HUTCHINSON     FAIR      94  61  33 S14G24    29.91F
NEWTON         FAIR      91  64  40 S18       29.96F
PARSONS        FAIR      88  72  58 S12G18    29.97F
WICHITA INTL   FAIR      93  64  38 S16       29.91F
WICHITA JABRA  FAIR      89  68  49 S13       29.93F
WINFIELD       FAIR      94  65  38 SE16      29.92F HX  96
$$

KSZ007>012-019>026-033>040-048>060-102>105-312200-
NORTHEAST KANSAS

CITY           SKY/WX    TMP DP  RH WIND       PRES   REMARKS
CONCORDIA      FAIR      91  64  40 S10       29.90F
EMPORIA        FAIR      89  67  47 SE14G21   29.93F
LAWRENCE       FAIR      90  69  50 S10       29.94F
MANHATTAN      FAIR      93  69  45 SE14G22   29.89F HX  98
OLATHE IND     FAIR      88  72  58 S12       29.97F
OLATHE EXE     FAIR      86  70  58 SW14      29.96F
SALINA         FAIR      95  60  31 S15G23    29.88F HX  95
TOPEKA BILLARD FAIR      90  68  48 SE13G20   29.92F
TOPEKA FORBES  FAIR      92  70  48 S13G21    29.93F HX  97
$$



USA.gov is the U.S. government's official web portal to all federal, state and local government web resources and services.